timestamp,wind_dir_avg,wind_spd_avg,wind_spd_max_dir,wind_spd_gust,battery_voltage,lat,long
2022-10-27 00:04:00+00:00,220.0,3.92,227.0,4.3,12.41,47.59359,-54.27349
2022-10-27 00:14:00+00:00,211.0,3.58,210.0,4.13,12.41,47.59359,-54.27349
2022-10-27 00:24:00+00:00,224.0,4.31,229.0,4.89,12.41,47.59359,-54.27349
2022-10-27 00:34:00+00:00,219.0,4.03,225.0,4.74,12.41,47.59359,-54.27349
2022-10-27 00:44:00+00:00,217.0,3.6,219.0,3.78,12.41,47.59359,-54.27349
2022-10-27 00:54:00+00:00,257.0,1.9,265.0,2.21,12.41,47.59359,-54.27349
2022-10-27 01:04:00+00:00,257.0,1.22,262.0,1.51,12.41,47.59359,-54.27349
2022-10-27 01:14:00+00:00,180.0,1.31,183.0,1.9,12.41,47.59359,-54.27349
2022-10-27 01:24:00+00:00,195.0,1.39,189.0,2.08,12.41,47.59359,-54.27349
2022-10-27 01:34:00+00:00,206.0,1.45,195.0,1.63,12.41,47.59359,-54.27349
2022-10-27 01:44:00+00:00,41.0,0.46,35.0,0.8,12.41,47.59359,-54.27349
2022-10-27 01:54:00+00:00,75.0,0.64,75.0,1.04,12.41,47.59359,-54.27349
2022-10-27 02:04:00+00:00,124.0,1.13,115.0,1.39,12.41,47.59359,-54.27349
2022-10-27 02:14:00+00:00,132.0,0.98,129.0,1.15,12.41,47.59359,-54.27349
2022-10-27 02:24:00+00:00,163.0,0.54,171.0,0.92,12.41,47.59359,-54.27349
2022-10-27 02:34:00+00:00,213.0,1.26,215.0,1.45,12.41,47.59359,-54.27349
2022-10-27 02:44:00+00:00,240.0,0.99,239.0,1.25,12.41,47.59359,-54.27349
2022-10-27 02:54:00+00:00,261.0,1.15,262.0,1.38,12.41,47.59359,-54.27349
2022-10-27 03:04:00+00:00,278.0,2.29,270.0,2.72,12.41,47.59359,-54.27349
2022-10-27 03:14:00+00:00,307.0,1.52,308.0,1.74,12.41,47.59359,-54.27349
2022-10-27 03:24:00+00:00,283.0,1.12,281.0,1.3,12.41,47.59359,-54.27349
2022-10-27 03:34:00+00:00,269.0,0.99,270.0,1.15,12.41,47.59359,-54.27349
2022-10-27 03:44:00+00:00,299.0,0.51,312.0,0.67,12.41,47.59359,-54.27349
2022-10-27 03:54:00+00:00,226.0,0.71,233.0,0.83,12.41,47.59359,-54.27349
2022-10-27 04:04:00+00:00,210.0,0.53,217.0,0.86,12.41,47.59359,-54.27349
2022-10-27 04:14:00+00:00,254.0,1.42,255.0,1.81,12.41,47.59359,-54.27349
2022-10-27 04:24:00+00:00,250.0,2.03,252.0,2.44,12.41,47.59359,-54.27349
2022-10-27 04:34:00+00:00,222.0,2.07,213.0,2.58,12.41,47.59359,-54.27349
2022-10-27 04:44:00+00:00,232.0,2.82,234.0,3.19,12.41,47.59359,-54.27349
2022-10-27 04:54:00+00:00,221.0,2.78,220.0,3.23,12.41,47.59359,-54.27349
2022-10-27 05:04:00+00:00,240.0,1.65,243.0,1.93,12.41,47.59359,-54.27349
2022-10-27 05:14:00+00:00,228.0,1.07,228.0,1.26,12.33,47.59359,-54.27349
2022-10-27 05:24:00+00:00,8.0,1.42,20.0,1.79,12.33,47.59359,-54.27349
2022-10-27 05:34:00+00:00,354.0,1.02,356.0,1.2,12.33,47.59359,-54.27349
2022-10-27 05:44:00+00:00,330.0,1.24,327.0,1.42,12.33,47.59359,-54.27349
2022-10-27 05:54:00+00:00,1.0,1.01,5.0,1.23,12.33,47.59359,-54.27349
2022-10-27 06:04:00+00:00,270.0,0.13,267.0,0.26,12.33,47.59359,-54.27349
2022-10-27 06:14:00+00:00,290.0,1.01,292.0,1.23,12.33,47.59359,-54.27349
2022-10-27 06:24:00+00:00,291.0,1.75,294.0,2.04,12.33,47.59359,-54.27349
2022-10-27 06:34:00+00:00,286.0,2.64,287.0,2.8,12.33,47.59359,-54.27349
2022-10-27 06:44:00+00:00,284.0,1.68,285.0,2.0,12.33,47.59359,-54.27349
2022-10-27 06:54:00+00:00,298.0,2.4,298.0,2.62,12.33,47.59359,-54.27349
2022-10-27 07:04:00+00:00,304.0,0.95,295.0,1.13,12.33,47.59359,-54.27349
2022-10-27 07:14:01+00:00,275.0,0.86,278.0,1.11,12.33,47.59359,-54.27349
2022-10-27 07:24:01+00:00,230.0,2.12,234.0,2.57,12.33,47.59359,-54.27349
2022-10-27 07:34:01+00:00,221.0,2.06,222.0,2.47,12.33,47.59359,-54.27349
2022-10-27 07:44:01+00:00,188.0,1.98,184.0,2.2,12.33,47.59359,-54.27349
2022-10-27 07:54:01+00:00,226.0,2.85,234.0,3.42,12.33,47.59359,-54.27349
2022-10-27 08:04:01+00:00,198.0,2.33,199.0,2.66,12.33,47.59359,-54.27349
2022-10-27 08:14:01+00:00,214.0,2.03,222.0,2.26,12.33,47.59359,-54.27349
2022-10-27 08:24:01+00:00,224.0,3.04,225.0,3.45,12.33,47.59359,-54.27349
2022-10-27 08:34:01+00:00,217.0,2.81,221.0,3.03,12.33,47.59359,-54.27349
2022-10-27 08:44:01+00:00,216.0,2.64,212.0,2.92,12.33,47.59359,-54.27349
2022-10-27 08:54:01+00:00,198.0,3.11,196.0,3.33,12.33,47.59359,-54.27349
2022-10-27 09:04:01+00:00,178.0,2.58,179.0,2.75,12.33,47.59359,-54.27349
2022-10-27 09:14:00+00:00,178.0,2.16,179.0,2.43,12.33,47.59359,-54.27349
2022-10-27 09:24:00+00:00,188.0,2.29,184.0,2.47,12.33,47.59359,-54.27349
2022-10-27 09:34:00+00:00,188.0,2.49,196.0,2.76,12.33,47.59359,-54.27349
2022-10-27 09:44:00+00:00,190.0,2.64,193.0,2.92,12.33,47.59359,-54.27349
2022-10-27 09:54:00+00:00,190.0,2.68,189.0,2.82,12.33,47.59359,-54.27349
2022-10-27 10:04:00+00:00,185.0,2.8,184.0,3.22,12.33,47.59359,-54.27349
2022-10-27 10:14:00+00:00,189.0,3.61,188.0,3.76,12.25,47.59359,-54.27349
2022-10-27 10:24:00+00:00,179.0,3.27,181.0,3.45,12.25,47.59359,-54.27349
2022-10-27 10:34:00+00:00,182.0,3.41,184.0,3.58,12.25,47.59359,-54.27349
2022-10-27 10:44:00+00:00,179.0,3.22,183.0,3.4,12.25,47.59359,-54.27349
2022-10-27 10:54:00+00:00,190.0,3.95,191.0,4.38,12.25,47.59359,-54.27349
2022-10-27 11:04:00+00:00,202.0,4.13,203.0,4.71,12.25,47.59359,-54.27349
2022-10-27 11:14:00+00:00,202.0,3.88,207.0,4.46,12.25,47.59359,-54.27349
2022-10-27 11:24:00+00:00,204.0,4.15,205.0,4.89,12.25,47.59359,-54.27349
2022-10-27 11:34:00+00:00,203.0,5.43,204.0,5.99,12.25,47.59359,-54.27349
2022-10-27 11:44:00+00:00,198.0,4.91,201.0,5.51,12.25,47.59359,-54.27349
2022-10-27 11:54:00+00:00,202.0,4.57,201.0,5.22,12.25,47.59359,-54.27349
2022-10-27 12:04:00+00:00,195.0,4.16,197.0,4.81,12.25,47.59359,-54.27349
2022-10-27 12:14:00+00:00,202.0,4.29,197.0,4.81,13.05,47.59359,-54.27349
2022-10-27 12:24:00+00:00,199.0,3.95,199.0,4.62,13.05,47.59359,-54.27349
2022-10-27 12:34:00+00:00,192.0,3.97,195.0,4.42,13.05,47.59359,-54.27349
2022-10-27 12:44:00+00:00,182.0,3.5,186.0,4.02,13.05,47.59359,-54.27349
2022-10-27 12:54:00+00:00,195.0,3.78,195.0,4.25,13.05,47.59359,-54.27349
2022-10-27 13:04:00+00:00,202.0,4.31,205.0,4.89,13.05,47.59359,-54.27349
2022-10-27 13:14:00+00:00,204.0,4.23,208.0,4.69,13.37,47.59359,-54.27349
2022-10-27 13:24:00+00:00,213.0,4.63,206.0,5.36,13.37,47.59359,-54.27349
2022-10-27 13:34:00+00:00,214.0,4.95,201.0,5.6,13.37,47.59359,-54.27349
2022-10-27 13:44:00+00:00,211.0,4.33,215.0,4.78,13.37,47.59359,-54.27349
2022-10-27 13:54:00+00:00,204.0,3.93,208.0,4.87,13.37,47.59359,-54.27349
2022-10-27 14:04:00+00:00,210.0,5.68,210.0,6.21,13.37,47.59359,-54.27349
2022-10-27 14:14:00+00:00,211.0,5.83,211.0,6.5,13.76,47.59359,-54.27349
2022-10-27 14:24:00+00:00,215.0,5.19,213.0,5.9,13.76,47.59359,-54.27349
2022-10-27 14:34:00+00:00,221.0,4.22,221.0,4.76,13.76,47.59359,-54.27349
2022-10-27 14:44:00+00:00,222.0,4.12,217.0,4.84,13.76,47.59359,-54.27349
2022-10-27 14:54:00+00:00,217.0,6.48,221.0,6.98,13.76,47.59359,-54.27349
2022-10-27 15:04:00+00:00,220.0,5.54,221.0,6.25,13.76,47.59359,-54.27349
2022-10-27 15:14:00+00:00,223.0,5.65,227.0,6.29,13.53,47.59359,-54.27349
2022-10-27 15:24:00+00:00,218.0,5.41,219.0,6.11,13.53,47.59359,-54.27349
2022-10-27 15:34:00+00:00,213.0,4.32,207.0,4.82,13.53,47.59359,-54.27349
2022-10-27 15:44:00+00:00,226.0,3.96,227.0,4.41,13.53,47.59359,-54.27349
2022-10-27 15:54:00+00:00,218.0,3.62,221.0,3.96,13.53,47.59359,-54.27349
2022-10-27 16:04:00+00:00,217.0,3.92,217.0,4.27,13.53,47.59359,-54.27349
2022-10-27 16:14:01+00:00,231.0,3.35,232.0,3.77,13.44,47.59359,-54.27349
2022-10-27 16:24:01+00:00,228.0,3.39,229.0,3.67,13.44,47.59359,-54.27349
2022-10-27 16:34:01+00:00,237.0,4.0,238.0,4.33,13.44,47.59359,-54.27349
2022-10-27 16:44:01+00:00,244.0,4.06,239.0,4.46,13.44,47.59359,-54.27349
2022-10-27 16:54:01+00:00,235.0,2.88,235.0,3.48,13.44,47.59359,-54.27349
2022-10-27 17:04:01+00:00,262.0,2.25,264.0,2.62,13.44,47.59359,-54.27349
2022-10-27 17:14:01+00:00,266.0,2.32,266.0,2.44,13.05,47.59359,-54.27349
2022-10-27 17:24:01+00:00,240.0,3.15,239.0,3.44,13.05,47.59359,-54.27349
2022-10-27 17:34:01+00:00,228.0,2.43,231.0,2.96,13.05,47.59359,-54.27349
2022-10-27 17:44:01+00:00,228.0,2.5,228.0,2.94,13.05,47.59359,-54.27349
2022-10-27 17:54:01+00:00,215.0,3.04,217.0,3.44,13.05,47.59359,-54.27349
2022-10-27 18:04:01+00:00,196.0,2.95,199.0,3.42,13.05,47.59359,-54.27349
2022-10-27 18:14:00+00:00,193.0,4.19,192.0,4.41,13.05,47.59359,-54.27349
2022-10-27 18:24:00+00:00,183.0,3.76,181.0,4.27,13.05,47.59359,-54.27349
2022-10-27 18:34:00+00:00,193.0,3.82,198.0,4.18,13.05,47.59359,-54.27349
2022-10-27 18:44:00+00:00,211.0,3.94,216.0,4.92,13.05,47.59359,-54.27349
2022-10-27 18:54:00+00:00,216.0,5.44,216.0,6.52,13.05,47.59359,-54.27349
2022-10-27 19:04:00+00:00,207.0,5.28,207.0,6.3,13.05,47.59359,-54.27349
2022-10-27 19:14:01+00:00,220.0,4.8,221.0,5.74,12.73,47.59359,-54.27349
2022-10-27 19:24:01+00:00,231.0,7.99,238.0,11.28,12.73,47.59359,-54.27349
2022-10-27 19:34:01+00:00,224.0,6.79,233.0,8.45,12.73,47.59359,-54.27349
2022-10-27 19:44:01+00:00,214.0,7.03,217.0,7.76,12.73,47.59359,-54.27349
2022-10-27 19:54:01+00:00,219.0,6.66,239.0,9.95,12.73,47.59359,-54.27349
2022-10-27 20:04:01+00:00,219.0,6.56,232.0,7.44,12.73,47.59359,-54.27349
2022-10-27 20:14:00+00:00,201.0,7.34,203.0,8.01,12.49,47.59359,-54.27349
2022-10-27 20:24:00+00:00,163.0,7.27,161.0,8.04,12.49,47.59359,-54.27349
2022-10-27 20:34:00+00:00,207.0,7.94,208.0,8.72,12.49,47.59359,-54.27349
2022-10-27 20:44:00+00:00,211.0,7.49,226.0,9.48,12.49,47.59359,-54.27349
2022-10-27 20:54:00+00:00,213.0,7.55,215.0,8.05,12.49,47.59359,-54.27349
2022-10-27 21:04:00+00:00,206.0,7.0,211.0,7.74,12.49,47.59359,-54.27349
2022-10-27 21:14:00+00:00,207.0,5.57,212.0,6.31,12.41,47.59359,-54.27349
2022-10-27 21:24:00+00:00,220.0,6.33,218.0,7.36,12.41,47.59359,-54.27349
2022-10-27 21:34:00+00:00,226.0,6.03,227.0,7.29,12.41,47.59359,-54.27349
2022-10-27 21:44:00+00:00,223.0,6.78,229.0,7.98,12.41,47.59359,-54.27349
2022-10-27 21:54:00+00:00,219.0,6.05,217.0,6.89,12.41,47.59359,-54.27349
2022-10-27 22:04:00+00:00,212.0,6.85,224.0,8.2,12.41,47.59359,-54.27349
2022-10-27 22:14:00+00:00,210.0,7.29,213.0,8.1,12.41,47.59359,-54.27349
2022-10-27 22:24:00+00:00,201.0,7.74,202.0,8.24,12.41,47.59359,-54.27349
2022-10-27 22:34:00+00:00,202.0,7.37,205.0,8.11,12.41,47.59359,-54.27349
2022-10-27 22:44:00+00:00,198.0,7.43,199.0,8.16,12.41,47.59359,-54.27349
2022-10-27 22:54:00+00:00,204.0,7.09,208.0,7.83,12.41,47.59359,-54.27349
2022-10-27 23:04:00+00:00,203.0,6.6,206.0,6.99,12.41,47.59359,-54.27349
2022-10-27 23:14:00+00:00,208.0,6.94,211.0,7.64,12.41,47.59359,-54.27349
2022-10-27 23:24:00+00:00,205.0,6.62,205.0,7.25,12.41,47.59359,-54.27349
2022-10-27 23:34:00+00:00,211.0,5.83,212.0,6.64,12.41,47.59359,-54.27349
2022-10-27 23:44:00+00:00,210.0,7.01,212.0,7.63,12.41,47.59359,-54.27349
2022-10-27 23:54:00+00:00,215.0,7.72,217.0,8.43,12.41,47.59359,-54.27349
